Torna al catalogo

STARLINK-34406

AttivoComunicazioniVLEO
NORAD 64705·PAYLOAD·🇺🇸 United States

Lanciato Jun 28, 2025 da Vandenberg Space Force Base

Loading…

Prossimi Passaggi (prossime 24 ore)

TLE

AggiornatoSource: CelesTrak SupGP

Epoca: Sep 14, 2026, 21:43 UTC

1 64705C 25142K   26257.90534722 -.00014777  00000+0 -51384-3 0  2578
2 64705  70.0011 195.8997 0002945 269.0959 339.0029 15.29599586    17

Traccia STARLINK-34406 in tempo reale con AllMySat

Download on the App Store